Weather History for Cincinnati, OH

Change the Weather History Date:

Wednesday, January 16, 2013

  Actual Average Record
Temperature  
Mean Temperature 34 °F -  
Max Temperature 37 °F 39 °F 65 °F (1950)
Min Temperature 30 °F 18 °F -12 °F (1977)
Degree Days  
Heating Degree Days 32    
Moisture  
Dew Point 28 °F    
Average Humidity 84    
Maximum Humidity 93    
Minimum Humidity 67    
Precipitation  
Precipitation 0.00 in - - ()
Sea Level Pressure  
Sea Level Pressure 30.07 in    
Wind  
Wind Speed 3 mph (SW)    
Max Wind Speed 12 mph    
Max Gust Speed -    
Visibility 7 miles    
Events Snow    
Averages and records for this station are not official NWS values.
T = Trace of Precipitation, MM = Missing Value Source: NWS Daily Summary

Daily Weather History Graph

Daily Weather History Graph

Search for Another Location

Airport:

Trip Planner

Search our weather history database for the weather conditions in past years. The results will help you decide how hot, cold, wet, or windy it might be!

Date:

Astronomy

Jan. 16, 2013 Rise Set
Actual Time 7:54 AM EST 5:40 PM EST
Civil Twilight 7:25 AM EST 6:09 PM EST
Nautical Twilight 6:52 AM EST 6:42 PM EST
Astronomical Twilight 6:20 AM EST 7:14 PM EST
Moon 10:33 AM EST (1/16) 11:28 PM EST (1/16)
Length of Visible Light 10h 44m
Length of Day
9h 45m
Waxing Crescent, 28% of the Moon is Illuminated
Jan 16
Waxing Crescent
Jan 18
First Quarter
Jan 26
Full
Feb 3
Last Quarter
Feb 10
New

Hourly Weather History & Observations

Time (EST) Temp. Windchill Dew Point Humidity Pressure Visibility Wind Dir Wind Speed Gust Speed Precip Events Conditions
12:10 AM 30.2 °F 25.4 °F 26.6 °F 86% 30.10 in 1.8 mi ENE 4.6 mph - 0.00 in Snow Light Snow
12:24 AM 30.2 °F 26.7 °F 28.4 °F 93% 30.09 in 2.0 mi ENE 3.5 mph - 0.00 in Snow Light Snow
12:41 AM 30.2 °F 26.7 °F 28.4 °F 93% 30.08 in 4.0 mi NE 3.5 mph - 0.00 in Snow Light Snow
12:53 AM 30.0 °F - 28.0 °F 92% 30.09 in 5.0 mi Calm Calm - 0.00 in   Overcast
1:33 AM 30.2 °F - 28.4 °F 93% 30.08 in 6.0 mi Calm Calm - N/A   Overcast
1:53 AM 30.9 °F - 28.9 °F 92% 30.11 in 6.0 mi Calm Calm - N/A   Overcast
2:27 AM 30.2 °F - 28.4 °F 93% 30.08 in 8.0 mi Calm Calm - N/A   Overcast
2:53 AM 30.2 °F - 28.4 °F 93% 30.08 in 7.0 mi Calm Calm - N/A   Overcast
3:20 AM 32.0 °F 28.7 °F 28.4 °F 87% 30.07 in 8.0 mi NNW 3.5 mph - N/A   Overcast
4:17 AM 32.0 °F - 28.4 °F 87% 30.04 in 8.0 mi Calm Calm - N/A   Overcast
4:53 AM 32.0 °F - 28.0 °F 85% 30.05 in 8.0 mi Calm Calm - N/A   Overcast
5:23 AM 32.0 °F - 26.6 °F 80% 30.03 in 9.0 mi Calm Calm - N/A   Overcast
5:53 AM 32.0 °F - 28.0 °F 85% 30.04 in 8.0 mi Calm Calm - N/A   Overcast
6:24 AM 32.0 °F - 28.4 °F 87% 30.01 in 8.0 mi Calm Calm - N/A   Mostly Cloudy
6:32 AM 32.0 °F - 28.4 °F 87% 30.02 in 8.0 mi Calm Calm - N/A   Mostly Cloudy
6:53 AM 32.0 °F - 28.4 °F 87% 30.03 in 8.0 mi Calm Calm - N/A   Mostly Cloudy
7:18 AM 32.0 °F - 28.4 °F 87% 30.01 in 7.0 mi Calm Calm - N/A   Scattered Clouds
7:34 AM 32.0 °F - 28.4 °F 87% 30.03 in 7.0 mi Calm Calm - N/A   Mostly Cloudy
7:53 AM 33.1 °F - 26.1 °F 75% 30.03 in 9.0 mi Calm Calm - N/A   Overcast
8:53 AM 33.1 °F 30.0 °F 27.0 °F 78% 30.06 in 6.0 mi NW 3.5 mph - N/A   Haze
9:53 AM 33.1 °F 27.7 °F 27.0 °F 78% 30.09 in 7.0 mi West 5.8 mph - N/A   Overcast
10:14 AM 33.8 °F 30.8 °F 26.6 °F 75% 30.08 in 6.0 mi SW 3.5 mph - N/A   Haze
10:53 AM 34.0 °F 29.8 °F 28.9 °F 82% 30.08 in 6.0 mi SW 4.6 mph - N/A   Haze
11:53 AM 35.1 °F 30.1 °F 28.0 °F 76% 30.06 in 8.0 mi WSW 5.8 mph - N/A   Overcast
12:53 PM 36.0 °F 32.1 °F 28.0 °F 73% 30.04 in 9.0 mi West 4.6 mph - N/A   Overcast
1:53 PM 36.0 °F 29.6 °F 28.0 °F 73% 30.03 in 9.0 mi SW 8.1 mph - N/A   Overcast
2:53 PM 37.0 °F 30.4 °F 27.0 °F 67% 30.03 in 10.0 mi WSW 9.2 mph - N/A   Clear
3:53 PM 36.0 °F 29.6 °F 27.0 °F 70% 30.05 in 10.0 mi SSW 8.1 mph - N/A   Clear
4:53 PM 35.1 °F 28.6 °F 28.9 °F 78% 30.06 in 8.0 mi South 8.1 mph - N/A   Clear
5:53 PM 34.0 °F 25.5 °F 28.9 °F 82% 30.08 in 7.0 mi SSW 11.5 mph - N/A   Clear
6:53 PM 33.1 °F 27.7 °F 28.9 °F 85% 30.08 in 7.0 mi South 5.8 mph - N/A   Clear
7:53 PM 32.0 °F 26.4 °F 28.9 °F 88% 30.11 in 7.0 mi SW 5.8 mph - N/A   Clear
8:53 PM 32.0 °F 25.6 °F 28.9 °F 88% 30.12 in 7.0 mi SSW 6.9 mph - N/A   Clear
9:53 PM 30.9 °F 24.3 °F 28.9 °F 92% 30.12 in 6.0 mi SSW 6.9 mph - N/A   Clear
10:53 PM 30.9 °F 25.2 °F 28.9 °F 92% 30.12 in 6.0 mi SW 5.8 mph - N/A   Clear
11:53 PM 30.9 °F 26.2 °F 28.0 °F 89% 30.14 in 7.0 mi SSW 4.6 mph - N/A   Clear